Showing default

NAVSTAR 77 (USA 289), 43873

Orbit data source: Space-Track

NAVSTAR 77 (USA 289), 43873 is a payload satellite owned by USAF SMC (US) in MEO that was launched on Sun, 23 Dec 2018 UTC via an FALCON 9 launch vehicle from the Air Force Eastern Test Range (AFETR). Payload-class satellites include a variety of spacecraft equipped with specific instruments for various scientific and technological missions. These include communications satellites like Starlink; space stations such as the ISS; scientific satellites like the Hubble; Earth observation satellites from companies like Planet Labs, Umbra, and HawkEye 360; GPS; miniature CubeSats for education and research; and military/defense satellites.

Loading next visibility...
Identifier
43873, 2018-109A
Orbit
MEO
Country
Flag of USUS
Related business
Manufacturer
LMSS Denver
Mission
Operational Defense Navigation
Bus & Motor
A2100, LEROS-1C?
Mass
4,400 kg wet, ~2,160 kg dry
Launch date (UTC)
2018-12-23 (7 years ago)
Launch vehicle
FALCON 9
Launch site
Air Force Eastern Test Range (AFETR)
Object type
Payload
Rocket body
Debris
Shape & HBR
Box + 2 Pan, 7.0 m
Radar Cross Section
13.646 m², Large (>1 m²)

Expand to show TLE details & history
Last TLE update: 2 days ago

TLE from 2 days ago
0 NAVSTAR 77 (USA 289)
1 43873U 18109A   26171.21185719 -.00000019  00000-0  00000+0 0  9995
2 43873  55.6840  92.0670 0038226 197.8624 309.8411  2.00561777 55132
Epoch: 2026-06-20T05:05Z
TLE epoch observation values (Epoch: 2026-06-20T05:05:04.461Z)
Latitude
26.4558°
Longitude
-92.43613°
Altitude
20,118.434 km
Speed
3.884 km/s
True Right ascension
16h 49m 02s
True Declination
26° 25' 08"
Sunlit
Object was in daylight at epoch
Visualization orbit readout
Latitude
Unknown
Longitude
Unknown
Altitude
Unknown
Speed
Unknown
Apparent Right ascension
Unknown
Apparent Declination
Unknown
Sunlit
N/A
Visualization observer readout
Local Sidereal Time
21:24:11
Azimuth
Unknown
Elevation
Unknown
Doppler factor
Unknown
Orbital elements
Apogee altitude
20,283.88 km
Perigee altitude
20,080.82 km
Semi-major axis
26,560.487 km
Eccentricity
0.00382
Inclination
55.684°
RAAN
92.067°
Arg. of periapsis
197.8624°
True anomaly
309.50373°
Mean anomaly
309.8411°
Eccentric anomaly
309.67252°
Mean motion
0.50141 °/min
Orbital period
717.98 mins
BSTAR
0
Loading maneuver chart data...
Computing Atmospheric mass density...
Loading historical data...
Loading historical data...
Loading historical data...
Loading historical data...
Loading historical data...
Loading historical data...
Loading historical data...
Other satellites on launch #109 in the year 2018 (2018-12-23 UTC)

Documentation

Showing up to 5 results
|